START_TIME,STEP,MOV.,H8,t_acc.,H43,t_acc.,M25,t_acc.,H9,t_acc.
1979-07-29 15:00:28.600 ,1,0,0.,12.0,0.,12.0,0.,12.0,0.,12.0
1979-07-29 15:00:40.600 ,1,0,0.,12.0,0.,12.0,0.,12.0,0.,12.0
1979-07-29 15:00:52.600 ,2,0,0.,12.0,0.,12.0,0.,12.0,0.,12.0
1979-07-29 15:01:04.600 ,2,0,0.,12.0,0.,12.0,0.,12.0,0.,12.0
1979-07-29 15:01:16.600 ,2,0,0.,12.0,0.,12.0,0.,12.0,0.,12.0
1979-07-29 15:01:28.600 ,2,0,0.,12.0,0.,12.0,0.,12.0,0.,12.0
1979-07-29 15:01:40.600 ,3,0,0.,12.0,0.,12.0,0.,12.0,0.,12.0
1979-07-29 15:01:52.600 ,3,0,0.,12.0,0.,12.0,0.,12.0,0.,12.0
1979-07-29 15:02:04.600 ,3,0,0.,12.0,0.,12.0,0.,12.0,0.,12.0
1979-07-29 15:02:16.600 ,3,0,0.,12.0,0.,12.0,0.,12.0,0.,12.0
1979-07-29 15:02:28.600 ,4,0,0.,12.0,0.,12.0,0.,12.0,0.,12.0
1979-07-29 15:02:40.600 ,4,0,0.,12.0,0.,12.0,0.,12.0,0.,12.0
1979-07-29 15:02:52.600 ,4,0,0.,12.0,0.,12.0,0.,12.0,0.,12.0
1979-07-29 15:03:04.600 ,4,0,0.,12.0,0.,12.0,0.,12.0,0.,12.0
1979-07-29 15:03:16.600 ,5,0,0.,12.0,0.,12.0,0.,12.0,0.,12.0
1979-07-29 15:03:28.600 ,5,0,0.,12.0,0.,12.0,0.,12.0,0.,12.0
1979-07-29 15:03:40.600 ,5,0,,0,,0,,0,,0
1979-07-29 15:03:52.600 ,5,0,0.,12.0,0.,12.0,0.,12.0,0.,12.0
1979-07-29 15:04:04.600 ,6,0,0.,12.0,0.,12.0,0.,12.0,0.,12.0
1979-07-29 15:04:16.600 ,6,0,0.,12.0,0.,12.0,0.,12.0,0.,12.0
1979-07-29 15:04:28.600 ,6,0,0.,12.0,0.,12.0,0.,12.0,0.,12.0
1979-07-29 15:04:40.600 ,6,0,0.,12.0,0.,12.0,0.,12.0,0.,12.0
1979-07-29 15:04:52.600 ,7,0,0.,12.0,0.,12.0,0.,12.0,0.,12.0
1979-07-29 15:05:04.600 ,7,0,0.,12.0,0.,12.0,0.,12.0,0.,12.0
1979-07-29 15:05:16.600 ,7,0,0.,12.0,0.,12.0,0.,12.0,0.,12.0
1979-07-29 15:05:28.600 ,7,0,0.,12.0,0.,12.0,0.,12.0,0.,12.0
1979-07-29 15:05:40.600 ,7,0,0.,12.0,0.,12.0,0.,12.0,0.,12.0
1979-07-29 15:05:52.600 ,7,0,0.,12.0,0.,12.0,0.,12.0,0.,12.0
1979-07-29 15:06:04.600 ,7,0,0.,12.0,0.,12.0,0.,12.0,0.,12.0
1979-07-29 15:06:16.600 ,7,0,0.,12.0,0.,12.0,0.,12.0,0.,12.0
1979-07-29 15:06:28.600 ,6,0,0.,12.0,0.,12.0,0.,12.0,0.,12.0
1979-07-29 15:06:40.600 ,6,0,0.,12.0,0.,12.0,0.,12.0,0.,12.0
1979-07-29 15:06:52.600 ,6,0,0.,12.0,0.,12.0,0.,12.0,0.,12.0
1979-07-29 15:07:04.600 ,6,0,0.,12.0,0.,12.0,0.,12.0,0.,12.0
1979-07-29 15:07:16.600 ,5,0,0.,12.0,0.,12.0,0.,12.0,0.,12.0
1979-07-29 15:07:28.600 ,5,0,0.,12.0,0.,12.0,0.,12.0,0.,12.0
1979-07-29 15:07:40.600 ,5,0,0.,12.0,0.,12.0,0.,12.0,0.,12.0
1979-07-29 15:07:52.600 ,5,0,0.,12.0,0.,12.0,0.,12.0,0.,12.0
1979-07-29 15:08:04.600 ,4,0,0.,12.0,0.,12.0,0.,12.0,0.,12.0
1979-07-29 15:08:16.600 ,4,0,0.,12.0,0.,12.0,0.,12.0,0.,12.0
1979-07-29 15:08:28.600 ,4,0,0.,12.0,0.,12.0,0.,12.0,0.,12.0
1979-07-29 15:08:40.600 ,4,0,0.,12.0,0.,12.0,0.,12.0,0.,12.0
1979-07-29 15:08:52.600 ,3,0,0.,12.0,0.,12.0,0.,12.0,0.,12.0
1979-07-29 15:09:04.600 ,3,0,0.,12.0,0.,12.0,0.,12.0,0.,12.0
1979-07-29 15:09:16.600 ,3,0,0.,12.0,0.,12.0,0.,12.0,0.,12.0
1979-07-29 15:09:28.600 ,3,0,0.,12.0,0.,12.0,0.,12.0,0.,12.0
1979-07-29 15:09:40.600 ,2,0,0.,12.0,0.,12.0,0.,12.0,0.,12.0
1979-07-29 15:09:52.600 ,2,0,0.,12.0,0.,12.0,0.,12.0,0.,12.0
1979-07-29 15:10:04.600 ,2,0,0.,12.0,0.,12.0,0.,12.0,0.,12.0
1979-07-29 15:10:16.600 ,2,0,0.,12.0,0.,12.0,0.,12.0,0.,12.0
1979-07-29 15:10:28.600 ,1,0,0.,12.0,0.,12.0,0.,12.0,0.,12.0
1979-07-29 15:10:40.600 ,1,0,0.,12.0,0.,12.0,0.,12.0,0.,12.0
1979-07-29 15:10:52.600 ,1,0,0.,12.0,0.,12.0,0.,12.0,0.,12.0
1979-07-29 15:11:04.600 ,1,0,0.,12.0,0.,12.0,0.,12.0,0.,12.0
1979-07-29 15:11:16.600 ,0,0,0.,12.0,0.,12.0,0.,12.0,0.,12.0
1979-07-29 15:11:28.600 ,0,0,0.,12.0,0.,12.0,0.,12.0,0.,12.0
1979-07-29 15:11:40.600 ,0,0,0.,12.0,0.,12.0,0.,12.0,0.,12.0
1979-07-29 15:11:52.600 ,0,0,0.,12.0,0.,12.0,0.,12.0,0.,12.0
1979-07-29 15:12:04.600 ,0,0,0.,12.0,0.,12.0,0.,12.0,0.,12.0
1979-07-29 15:12:16.600 ,0,0,0.,12.0,0.,12.0,0.,12.0,0.,12.0
1979-07-29 15:12:28.600 ,0,0,0.,12.0,0.,12.0,0.,12.0,0.,12.0
1979-07-29 15:12:40.600 ,0,0,0.,12.0,0.,12.0,0.,12.0,0.,12.0
1979-07-29 15:12:52.600 ,1,0,0.,12.0,0.,12.0,0.,12.0,0.,12.0
1979-07-29 15:13:04.600 ,1,0,0.,12.0,0.,12.0,0.,12.0,0.,12.0
1979-07-29 15:13:16.600 ,1,0,0.,12.0,0.,12.0,0.,12.0,0.,12.0
1979-07-29 15:13:28.600 ,1,0,0.,12.0,0.,12.0,0.,12.0,0.,12.0
1979-07-29 15:13:40.600 ,2,0,0.,12.0,0.,12.0,0.,12.0,0.,12.0
1979-07-29 15:13:52.600 ,2,0,0.,12.0,0.,12.0,0.,12.0,0.,12.0
1979-07-29 15:14:04.600 ,2,0,0.,12.0,0.,12.0,0.,12.0,0.,12.0
1979-07-29 15:14:16.600 ,2,0,0.,12.0,0.,12.0,0.,12.0,0.,12.0
1979-07-29 15:14:28.600 ,3,0,0.,12.0,0.,12.0,0.,12.0,0.,12.0
1979-07-29 15:14:40.600 ,3,0,0.,12.0,0.,12.0,0.,12.0,0.,12.0
1979-07-29 15:14:52.600 ,3,0,0.,12.0,0.,12.0,0.,12.0,0.,12.0
1979-07-29 15:15:04.600 ,3,0,0.,12.0,0.,12.0,0.,12.0,0.,12.0
1979-07-29 15:15:16.600 ,4,0,0.,12.0,0.,12.0,0.,12.0,0.,12.0
1979-07-29 15:15:28.600 ,4,0,0.,12.0,0.,12.0,0.,12.0,0.,12.0
1979-07-29 15:15:40.600 ,4,0,0.,12.0,0.,12.0,0.,12.0,0.,12.0
1979-07-29 15:15:52.600 ,4,0,0.,12.0,0.,12.0,0.,12.0,0.,12.0
1979-07-29 15:16:04.600 ,5,0,0.,12.0,0.,12.0,0.,12.0,0.,12.0
1979-07-29 15:16:16.600 ,5,0,0.,12.0,0.,12.0,0.,12.0,0.,12.0
1979-07-29 15:16:28.600 ,5,0,0.,12.0,0.,12.0,0.,12.0,0.,12.0
1979-07-29 15:16:40.600 ,5,0,0.,12.0,0.,12.0,0.,12.0,0.,12.0
1979-07-29 15:16:52.600 ,6,0,0.,12.0,0.,12.0,0.,12.0,0.,12.0
1979-07-29 15:17:04.600 ,6,0,0.,12.0,0.,12.0,0.,12.0,0.,12.0
1979-07-29 15:17:16.600 ,6,0,0.,12.0,0.,12.0,0.,12.0,0.,12.0
1979-07-29 15:17:28.600 ,6,0,0.,12.0,0.,12.0,0.,12.0,0.,12.0
1979-07-29 15:17:40.600 ,7,0,0.,12.0,0.,12.0,0.,12.0,0.,12.0
1979-07-29 15:17:52.600 ,7,0,0.,12.0,0.,12.0,0.,12.0,0.,12.0
1979-07-29 15:18:04.600 ,7,0,0.,12.0,0.,12.0,0.,12.0,0.,12.0
1979-07-29 15:18:16.600 ,7,0,0.,12.0,0.,12.0,0.,12.0,0.,12.0
1979-07-29 15:18:28.600 ,7,0,0.,12.0,0.,12.0,0.,12.0,0.,12.0
1979-07-29 15:18:40.600 ,7,0,0.,12.0,0.,12.0,0.,12.0,0.,12.0
1979-07-29 15:18:52.600 ,7,0,0.,12.0,0.,12.0,0.,12.0,0.,12.0
1979-07-29 15:19:04.600 ,7,0,0.,12.0,0.,12.0,0.,12.0,0.,12.0
1979-07-29 15:19:16.600 ,6,0,0.,12.0,0.,12.0,0.,12.0,0.,12.0
1979-07-29 15:19:28.600 ,6,0,0.,12.0,0.,12.0,0.,12.0,0.,12.0
1979-07-29 15:19:40.600 ,6,0,0.,12.0,0.,12.0,0.,12.0,0.,12.0
1979-07-29 15:19:52.600 ,6,0,0.,12.0,0.,12.0,0.,12.0,0.,12.0
1979-07-29 15:20:04.600 ,5,0,0.,12.0,0.,12.0,0.,12.0,0.,12.0
1979-07-29 15:20:16.600 ,5,0,0.,12.0,0.,12.0,0.,12.0,0.,12.0
1979-07-29 15:20:28.600 ,5,0,0.,12.0,0.,12.0,0.,12.0,0.,12.0
1979-07-29 15:20:40.600 ,5,0,0.,12.0,0.,12.0,0.,12.0,0.,12.0
1979-07-29 15:20:52.600 ,4,0,0.,12.0,0.,12.0,0.,12.0,0.,12.0
1979-07-29 15:21:04.600 ,4,0,0.,12.0,0.,12.0,0.,12.0,0.,12.0
1979-07-29 15:21:16.600 ,4,0,0.,12.0,0.,12.0,0.,12.0,0.,12.0
1979-07-29 15:21:28.600 ,4,0,0.,12.0,0.,12.0,0.,12.0,0.,12.0
1979-07-29 15:21:40.600 ,3,0,0.,12.0,0.,12.0,0.,12.0,0.,12.0
1979-07-29 15:21:52.600 ,3,0,0.,12.0,0.,12.0,0.,12.0,0.,12.0
1979-07-29 15:22:04.600 ,3,0,0.,12.0,0.,12.0,0.,12.0,0.,12.0
1979-07-29 15:22:16.600 ,3,0,0.,12.0,0.,12.0,0.,12.0,0.,12.0
1979-07-29 15:22:28.600 ,2,0,0.,12.0,0.,12.0,0.,12.0,0.,12.0
1979-07-29 15:22:40.600 ,2,0,0.,12.0,0.,12.0,0.,12.0,0.,12.0
1979-07-29 15:22:52.600 ,2,0,0.,12.0,0.,12.0,0.,12.0,0.,12.0
1979-07-29 15:23:04.600 ,2,0,0.,12.0,0.,12.0,0.,12.0,0.,12.0
1979-07-29 15:23:16.600 ,1,0,0.,12.0,0.,12.0,0.,12.0,0.,12.0
1979-07-29 15:23:28.600 ,1,0,0.,12.0,0.,12.0,0.,12.0,0.,12.0
1979-07-29 15:23:40.600 ,1,0,0.,12.0,0.,12.0,0.,12.0,0.,12.0
1979-07-29 15:23:52.600 ,1,0,0.,12.0,0.,12.0,0.,12.0,0.,12.0
1979-07-29 15:24:04.600 ,0,0,0.,12.0,0.,12.0,0.,12.0,0.,12.0
1979-07-29 15:24:16.600 ,0,0,0.,12.0,0.,12.0,0.,12.0,0.,12.0
1979-07-29 15:24:28.600 ,0,0,0.,12.0,0.,12.0,0.,12.0,0.,12.0
1979-07-29 15:24:40.600 ,0,0,0.,12.0,0.,12.0,0.,12.0,0.,12.0
1979-07-29 15:24:52.600 ,0,0,0.,12.0,0.,12.0,0.,12.0,0.,12.0
1979-07-29 15:25:04.600 ,0,0,0.,12.0,0.,12.0,0.,12.0,0.,12.0
1979-07-29 15:25:16.600 ,0,0,0.,12.0,0.,12.0,0.,12.0,0.,12.0
1979-07-29 15:25:28.600 ,0,0,0.,12.0,0.,12.0,0.,12.0,0.,12.0
1979-07-29 15:25:40.600 ,1,0,0.,12.0,0.,12.0,0.,12.0,0.,12.0
1979-07-29 15:25:52.600 ,1,0,0.,12.0,0.,12.0,0.,12.0,0.,12.0
1979-07-29 15:26:04.600 ,1,0,0.,12.0,0.,12.0,0.,12.0,0.,12.0
1979-07-29 15:26:16.600 ,1,0,0.,12.0,0.,12.0,0.,12.0,0.,12.0
1979-07-29 15:26:28.600 ,2,0,0.,12.0,0.,12.0,0.,12.0,0.,12.0
1979-07-29 15:26:40.600 ,2,0,0.,12.0,0.,12.0,0.,12.0,0.,12.0
1979-07-29 15:26:52.600 ,2,0,0.,12.0,0.,12.0,0.,12.0,0.,12.0
1979-07-29 15:27:04.600 ,2,0,0.,12.0,0.,12.0,0.,12.0,0.,12.0
1979-07-29 15:27:16.600 ,3,0,0.,12.0,0.,12.0,0.,12.0,0.,12.0
1979-07-29 15:27:28.600 ,3,0,0.,12.0,0.,12.0,0.,12.0,0.,12.0
1979-07-29 15:27:40.600 ,3,0,0.,12.0,0.,12.0,0.,12.0,0.,12.0
1979-07-29 15:27:52.600 ,3,0,0.,12.0,0.,12.0,0.,12.0,0.,12.0
1979-07-29 15:28:04.600 ,4,0,0.,12.0,0.,12.0,0.,12.0,0.,12.0
1979-07-29 15:28:16.600 ,4,0,0.,12.0,0.,12.0,0.,12.0,0.,12.0
1979-07-29 15:28:28.600 ,4,0,0.,12.0,0.,12.0,0.,12.0,0.,12.0
1979-07-29 15:28:40.600 ,4,0,0.,12.0,0.,12.0,0.,12.0,0.,12.0
1979-07-29 15:28:52.600 ,5,0,0.,12.0,0.,12.0,0.,12.0,0.,12.0
1979-07-29 15:29:04.600 ,5,0,0.,12.0,0.,12.0,0.,12.0,0.,12.0
1979-07-29 15:29:16.600 ,5,0,0.,12.0,0.,12.0,0.,12.0,0.,12.0
1979-07-29 15:29:28.600 ,5,0,0.,12.0,0.,12.0,0.,12.0,0.,12.0
1979-07-29 15:29:40.600 ,6,0,0.,12.0,0.,12.0,0.,12.0,0.,12.0
1979-07-29 15:29:52.600 ,6,0,0.,12.0,0.,12.0,0.,12.0,0.,12.0
1979-07-29 15:30:04.600 ,6,0,0.,12.0,0.,12.0,0.,12.0,0.,12.0
1979-07-29 15:30:16.600 ,6,0,0.,12.0,0.,12.0,0.,12.0,0.,12.0
1979-07-29 15:30:28.600 ,7,0,0.,12.0,0.,12.0,0.,12.0,0.,12.0
1979-07-29 15:30:40.600 ,7,0,0.,12.0,0.,12.0,0.,12.0,0.,12.0
1979-07-29 15:30:52.600 ,7,0,0.,12.0,0.,12.0,0.,12.0,0.,12.0
1979-07-29 15:31:04.600 ,7,0,0.,12.0,0.,12.0,0.,12.0,0.,12.0
1979-07-29 15:31:16.600 ,3,1,0.,12.0,0.,12.0,0.,12.0,0.,12.0
1979-07-29 15:31:28.600 ,3,1,0.,12.0,0.,12.0,0.,12.0,0.,12.0
1979-07-29 15:31:40.600 ,0,1,0.,12.0,0.,12.0,0.,12.0,0.,12.0
1979-07-29 15:31:52.600 ,0,1,0.,12.0,0.,12.0,0.,12.0,0.,12.0
1979-07-29 15:32:04.600 ,4,1,0.,12.0,0.,12.0,0.,12.0,0.,12.0
1979-07-29 15:32:16.600 ,4,1,0.,12.0,0.,12.0,0.,12.0,0.,12.0
1979-07-29 15:32:28.600 ,7,1,0.,12.0,0.,12.0,0.,12.0,0.,12.0
1979-07-29 15:32:40.600 ,7,1,0.,12.0,0.,12.0,0.,12.0,0.,12.0
1979-07-29 15:32:52.600 ,3,1,0.,12.0,0.,12.0,0.,12.0,0.,12.0
1979-07-29 15:33:04.600 ,3,1,0.,12.0,0.,12.0,0.,12.0,0.,12.0
1979-07-29 15:33:16.600 ,0,1,0.,12.0,0.,12.0,0.,12.0,0.,12.0
1979-07-29 15:33:28.600 ,0,1,0.,12.0,0.,12.0,0.,12.0,0.,12.0
1979-07-29 15:33:40.600 ,4,1,0.,12.0,0.,12.0,0.,12.0,0.,12.0
1979-07-29 15:33:52.600 ,4,1,0.,12.0,0.,12.0,0.,12.0,0.,12.0
1979-07-29 15:34:04.600 ,7,1,0.,12.0,0.,12.0,0.,12.0,0.,12.0
1979-07-29 15:34:16.600 ,7,1,0.,12.0,0.,12.0,0.,12.0,0.,12.0
1979-07-29 15:34:28.600 ,3,1,0.,12.0,0.,12.0,0.,12.0,0.,12.0
1979-07-29 15:34:40.600 ,3,1,0.,12.0,0.,12.0,0.,12.0,0.,12.0
1979-07-29 15:34:52.600 ,0,1,0.,12.0,0.,12.0,0.,12.0,0.,12.0
1979-07-29 15:35:04.600 ,0,1,0.,12.0,0.,12.0,0.,12.0,0.,12.0
1979-07-29 15:35:16.600 ,4,1,0.,12.0,0.,12.0,0.,12.0,0.,12.0
1979-07-29 15:35:28.600 ,4,1,0.,12.0,0.,12.0,0.,12.0,0.,12.0
1979-07-29 15:35:40.600 ,7,1,0.,12.0,0.,12.0,0.,12.0,0.,12.0
1979-07-29 15:35:52.600 ,7,1,0.,12.0,0.,12.0,0.,12.0,0.,12.0
1979-07-29 15:36:04.600 ,3,1,0.,12.0,0.,12.0,0.,12.0,0.,12.0
1979-07-29 15:36:16.600 ,3,1,0.,12.0,0.,12.0,0.,12.0,0.,12.0
1979-07-29 15:36:28.600 ,0,1,0.,12.0,0.,12.0,0.,12.0,0.,12.0
1979-07-29 15:36:40.600 ,0,1,0.,12.0,0.,12.0,0.,12.0,0.,12.0
1979-07-29 15:36:52.600 ,4,1,0.,12.0,0.,12.0,0.,12.0,0.,12.0
1979-07-29 15:37:04.600 ,4,1,0.,12.0,0.,12.0,0.,12.0,0.,12.0
1979-07-29 15:37:16.600 ,7,1,0.,12.0,0.,12.0,0.,12.0,0.,12.0
1979-07-29 15:37:28.600 ,7,1,0.,12.0,0.,12.0,0.,12.0,0.,12.0
1979-07-29 15:37:40.600 ,3,1,0.,12.0,0.,12.0,0.,12.0,0.,12.0
1979-07-29 15:37:52.600 ,3,1,0.,12.0,0.,12.0,0.,12.0,0.,12.0
1979-07-29 15:38:04.600 ,0,1,0.,12.0,0.,12.0,0.,12.0,0.,12.0
1979-07-29 15:38:16.600 ,0,1,0.,12.0,0.,12.0,0.,12.0,0.,12.0
1979-07-29 15:38:28.600 ,4,1,0.,12.0,0.,12.0,0.,12.0,0.,12.0
1979-07-29 15:38:40.600 ,4,1,0.,12.0,0.,12.0,0.,12.0,0.,12.0
1979-07-29 15:38:52.600 ,7,1,0.,12.0,0.,12.0,0.,12.0,0.,12.0
1979-07-29 15:39:04.600 ,7,1,0.,12.0,0.,12.0,0.,12.0,0.,12.0
1979-07-29 15:39:16.600 ,3,1,0.,12.0,0.,12.0,0.,12.0,0.,12.0
1979-07-29 15:39:28.600 ,3,1,0.,12.0,0.,12.0,0.,12.0,0.,12.0
1979-07-29 15:39:40.600 ,0,1,0.,12.0,0.,12.0,0.,12.0,0.,12.0
1979-07-29 15:39:52.600 ,0,1,0.,12.0,0.,12.0,0.,12.0,0.,12.0
1979-07-29 15:40:04.600 ,4,1,0.,12.0,0.,12.0,0.,12.0,0.,12.0
1979-07-29 15:40:16.600 ,4,1,0.,12.0,0.,12.0,0.,12.0,0.,12.0
1979-07-29 15:40:28.600 ,7,1,0.,12.0,0.,12.0,0.,12.0,0.,12.0
1979-07-29 15:40:40.600 ,7,1,0.,12.0,0.,12.0,0.,12.0,0.,12.0
1979-07-29 15:40:52.600 ,3,1,0.,12.0,0.,12.0,0.,12.0,0.,12.0
1979-07-29 15:41:04.600 ,3,1,0.,12.0,0.,12.0,0.,12.0,0.,12.0
1979-07-29 15:41:16.600 ,0,1,0.,12.0,0.,12.0,0.,12.0,0.,12.0
1979-07-29 15:41:28.600 ,0,1,0.,12.0,0.,12.0,0.,12.0,0.,12.0
1979-07-29 15:41:40.600 ,0,0,0.,12.0,0.,12.0,0.,12.0,0.,12.0
1979-07-29 15:41:52.600 ,0,0,0.,12.0,0.,12.0,0.,12.0,0.,12.0
1979-07-29 15:42:04.600 ,0,0,0.,12.0,0.,12.0,0.,12.0,0.,12.0
1979-07-29 15:42:16.600 ,0,0,0.,12.0,0.,12.0,0.,12.0,0.,12.0
1979-07-29 15:42:28.600 ,5,0,0.,12.0,0.,12.0,0.,12.0,0.,12.0
1979-07-29 15:42:40.600 ,5,0,0.,12.0,0.,12.0,0.,12.0,0.,12.0
1979-07-29 15:42:52.600 ,5,0,0.,12.0,0.,12.0,0.,12.0,0.,12.0
1979-07-29 15:43:04.600 ,5,0,0.,12.0,0.,12.0,0.,12.0,0.,12.0
1979-07-29 15:43:16.600 ,4,0,0.,12.0,0.,12.0,0.,12.0,0.,12.0
1979-07-29 15:43:28.600 ,4,0,0.,12.0,0.,12.0,0.,12.0,0.,12.0
1979-07-29 15:43:40.600 ,4,0,0.,12.0,0.,12.0,0.,12.0,0.,12.0
1979-07-29 15:43:52.600 ,4,0,0.,12.0,0.,12.0,0.,12.0,0.,12.0
1979-07-29 15:44:04.600 ,3,0,0.,12.0,0.,12.0,0.,12.0,0.,12.0
1979-07-29 15:44:16.600 ,3,0,0.,12.0,0.,12.0,0.,12.0,0.,12.0
1979-07-29 15:44:28.600 ,3,0,0.,12.0,0.,12.0,0.,12.0,0.,12.0
1979-07-29 15:44:40.600 ,3,0,0.,12.0,0.,12.0,0.,12.0,0.,12.0
1979-07-29 15:44:52.600 ,2,0,0.,12.0,0.,12.0,0.,12.0,0.,12.0
1979-07-29 15:45:04.600 ,2,0,0.,12.0,0.,12.0,0.,12.0,0.,12.0
1979-07-29 15:45:16.600 ,2,0,0.,12.0,0.,12.0,0.,12.0,0.,12.0
1979-07-29 15:45:28.600 ,2,0,0.,12.0,0.,12.0,0.,12.0,0.,12.0
1979-07-29 15:45:40.600 ,1,0,0.,12.0,0.,12.0,0.,12.0,0.,12.0
1979-07-29 15:45:52.600 ,1,0,0.,12.0,0.,12.0,0.,12.0,0.,12.0
1979-07-29 15:46:04.600 ,1,0,0.,12.0,0.,12.0,0.,12.0,0.,12.0
1979-07-29 15:46:16.600 ,1,0,0.,12.0,0.,12.0,0.,12.0,0.,12.0
1979-07-29 15:46:28.600 ,0,0,0.,12.0,0.,12.0,0.,12.0,0.,12.0
1979-07-29 15:46:40.600 ,0,0,0.,12.0,0.,12.0,0.,12.0,0.,12.0
1979-07-29 15:46:52.600 ,0,0,0.,12.0,0.,12.0,0.,12.0,0.,12.0
1979-07-29 15:47:04.600 ,0,0,0.,12.0,0.,12.0,0.,12.0,0.,12.0
1979-07-29 15:47:16.600 ,0,0,0.,12.0,0.,12.0,0.,12.0,0.,12.0
1979-07-29 15:47:28.600 ,0,0,0.,12.0,0.,12.0,0.,12.0,0.,12.0
1979-07-29 15:47:40.600 ,0,0,0.,12.0,0.,12.0,0.,12.0,0.,12.0
1979-07-29 15:47:52.600 ,0,0,0.,12.0,0.,12.0,0.,12.0,0.,12.0
1979-07-29 15:48:04.600 ,1,0,0.,12.0,0.,12.0,0.,12.0,0.,12.0
1979-07-29 15:48:16.600 ,1,0,0.,12.0,0.,12.0,0.,12.0,0.,12.0
1979-07-29 15:48:28.600 ,1,0,0.,12.0,0.,12.0,0.,12.0,0.,12.0
1979-07-29 15:48:40.600 ,1,0,0.,12.0,0.,12.0,0.,12.0,0.,12.0
1979-07-29 15:48:52.600 ,2,0,0.,12.0,0.,12.0,0.,12.0,0.,12.0
1979-07-29 15:49:04.600 ,2,0,0.,12.0,0.,12.0,0.,12.0,0.,12.0
1979-07-29 15:49:16.600 ,2,0,0.,12.0,0.,12.0,0.,12.0,0.,12.0
1979-07-29 15:49:28.600 ,2,0,0.,12.0,0.,12.0,0.,12.0,0.,12.0
1979-07-29 15:49:40.600 ,3,0,0.,12.0,0.,12.0,0.,12.0,0.,12.0
1979-07-29 15:49:52.600 ,3,0,0.,12.0,0.,12.0,0.,12.0,0.,12.0
1979-07-29 15:50:04.600 ,3,0,0.,12.0,0.,12.0,0.,12.0,0.,12.0
1979-07-29 15:50:16.600 ,3,0,0.,12.0,0.,12.0,0.,12.0,0.,12.0
1979-07-29 15:50:28.600 ,4,0,0.,12.0,0.,12.0,0.,12.0,0.,12.0
1979-07-29 15:50:40.600 ,4,0,0.,12.0,0.,12.0,0.,12.0,0.,12.0
1979-07-29 15:50:52.600 ,4,0,0.,12.0,0.,12.0,0.,12.0,0.,12.0
1979-07-29 15:51:04.600 ,4,0,0.,12.0,0.,12.0,0.,12.0,0.,12.0
1979-07-29 15:51:16.600 ,5,0,0.,12.0,0.,12.0,0.,12.0,0.,12.0
1979-07-29 15:51:28.600 ,5,0,0.,12.0,0.,12.0,0.,12.0,0.,12.0
1979-07-29 15:51:40.600 ,5,0,0.,12.0,0.,12.0,0.,12.0,0.,12.0
1979-07-29 15:51:52.600 ,5,0,0.,12.0,0.,12.0,0.,12.0,0.,12.0
1979-07-29 15:52:04.600 ,6,0,0.,12.0,0.,12.0,0.,12.0,0.,12.0
1979-07-29 15:52:16.600 ,6,0,0.,12.0,0.,12.0,0.,12.0,0.,12.0
1979-07-29 15:52:28.600 ,6,0,0.,12.0,0.,12.0,0.,12.0,0.,12.0
1979-07-29 15:52:40.600 ,6,0,0.,12.0,0.,12.0,0.,12.0,0.,12.0
1979-07-29 15:52:52.600 ,7,0,0.,12.0,0.,12.0,0.,12.0,0.,12.0
1979-07-29 15:53:04.600 ,7,0,0.,12.0,0.,12.0,0.,12.0,0.,12.0
1979-07-29 15:53:16.600 ,7,0,0.,12.0,0.,12.0,0.,12.0,0.,12.0
1979-07-29 15:53:28.600 ,7,0,0.,12.0,0.,12.0,0.,12.0,0.,12.0
1979-07-29 15:53:40.600 ,7,0,0.,12.0,0.,12.0,0.,12.0,0.,12.0
1979-07-29 15:53:52.600 ,7,0,0.,12.0,0.,12.0,0.,12.0,0.,12.0
1979-07-29 15:54:04.600 ,7,0,0.,12.0,0.,12.0,0.,12.0,0.,12.0
1979-07-29 15:54:16.600 ,7,0,0.,12.0,0.,12.0,0.,12.0,0.,12.0
1979-07-29 15:54:28.600 ,6,0,0.,12.0,0.,12.0,0.,12.0,0.,12.0
1979-07-29 15:54:40.600 ,6,0,1.,12.0,0.,12.0,0.,12.0,0.,12.0
1979-07-29 15:54:52.600 ,6,0,0.,12.0,0.,12.0,0.,12.0,0.,12.0
1979-07-29 15:55:04.600 ,6,0,0.,12.0,0.,12.0,0.,12.0,0.,12.0
1979-07-29 15:55:16.600 ,5,0,0.,12.0,0.,12.0,0.,12.0,0.,12.0
1979-07-29 15:55:28.600 ,5,0,0.,12.0,0.,12.0,0.,12.0,0.,12.0
1979-07-29 15:55:40.600 ,5,0,0.,12.0,0.,12.0,0.,12.0,0.,12.0
1979-07-29 15:55:52.600 ,5,0,0.,12.0,0.,12.0,0.,12.0,0.,12.0
1979-07-29 15:56:04.600 ,4,0,0.,12.0,0.,12.0,0.,12.0,0.,12.0
1979-07-29 15:56:16.600 ,4,0,0.,12.0,0.,12.0,0.,12.0,0.,12.0
1979-07-29 15:56:28.600 ,4,0,0.,12.0,0.,12.0,0.,12.0,0.,12.0
1979-07-29 15:56:40.600 ,4,0,0.,12.0,0.,12.0,0.,12.0,0.,12.0
1979-07-29 15:56:52.600 ,3,0,0.,12.0,0.,12.0,0.,12.0,0.,12.0
1979-07-29 15:57:04.600 ,3,0,0.,12.0,0.,12.0,0.,12.0,0.,12.0
1979-07-29 15:57:16.600 ,3,0,0.,12.0,0.,12.0,0.,12.0,0.,12.0
1979-07-29 15:57:28.600 ,3,0,0.,12.0,0.,12.0,0.,12.0,0.,12.0
1979-07-29 15:57:40.600 ,2,0,0.,12.0,0.,12.0,0.,12.0,0.,12.0
1979-07-29 15:57:52.600 ,2,0,0.,12.0,0.,12.0,0.,12.0,0.,12.0
1979-07-29 15:58:04.600 ,2,0,2.,12.0,0.,12.0,0.,12.0,0.,12.0
1979-07-29 15:58:16.600 ,2,0,2.,12.0,0.,12.0,0.,12.0,0.,12.0
1979-07-29 15:58:28.600 ,1,0,1.,12.0,0.,12.0,0.,12.0,0.,12.0
1979-07-29 15:58:40.600 ,1,0,0.,12.0,0.,12.0,0.,12.0,0.,12.0
1979-07-29 15:58:52.600 ,1,0,0.,12.0,0.,12.0,0.,12.0,0.,12.0
1979-07-29 15:59:04.600 ,1,0,0.,12.0,0.,12.0,0.,12.0,0.,12.0
1979-07-29 15:59:16.600 ,0,0,0.,12.0,0.,12.0,0.,12.0,0.,12.0
1979-07-29 15:59:28.600 ,0,0,0.,12.0,0.,12.0,0.,12.0,0.,12.0
1979-07-29 15:59:40.600 ,0,0,0.,12.0,0.,12.0,0.,12.0,0.,12.0
1979-07-29 15:59:52.600 ,0,0,0.,12.0,0.,12.0,0.,12.0,0.,12.0
1979-07-29 16:00:04.600 ,0,0,0.,12.0,0.,12.0,0.,12.0,0.,12.0
1979-07-29 16:00:16.600 ,0,0,0.,12.0,0.,12.0,0.,12.0,0.,12.0
1979-07-29 16:00:28.600 ,0,0,0.,12.0,0.,12.0,0.,12.0,0.,12.0
1979-07-29 16:00:40.600 ,0,0,0.,12.0,0.,12.0,0.,12.0,0.,12.0
1979-07-29 16:00:52.600 ,1,0,0.,12.0,0.,12.0,0.,12.0,0.,12.0
1979-07-29 16:01:04.600 ,1,0,0.,12.0,0.,12.0,0.,12.0,0.,12.0
1979-07-29 16:01:16.600 ,1,0,0.,12.0,0.,12.0,0.,12.0,0.,12.0
1979-07-29 16:01:28.600 ,1,0,1.,12.0,0.,12.0,0.,12.0,0.,12.0
1979-07-29 16:02:28.600 ,0,0,0.,12.0,0.,12.0,0.,12.0,0.,12.0
1979-07-29 16:02:40.600 ,0,0,0.,12.0,0.,12.0,0.,12.0,0.,12.0
1979-07-29 16:02:52.600 ,0,0,0.,12.0,0.,12.0,0.,12.0,0.,12.0
1979-07-29 16:03:04.600 ,0,0,0.,12.0,0.,12.0,0.,12.0,0.,12.0
1979-07-29 16:03:16.600 ,4,0,0.,12.0,0.,12.0,0.,12.0,0.,12.0
1979-07-29 16:03:28.600 ,4,0,0.,12.0,0.,12.0,0.,12.0,0.,12.0
1979-07-29 16:03:40.600 ,4,0,0.,12.0,0.,12.0,0.,12.0,0.,12.0
1979-07-29 16:03:52.600 ,4,0,0.,12.0,0.,12.0,0.,12.0,0.,12.0
1979-07-29 16:04:04.600 ,5,0,0.,12.0,0.,12.0,0.,12.0,0.,12.0
1979-07-29 16:04:16.600 ,5,0,0.,12.0,0.,12.0,0.,12.0,0.,12.0
1979-07-29 16:04:28.600 ,5,0,0.,12.0,0.,12.0,0.,12.0,0.,12.0
1979-07-29 16:04:40.600 ,5,0,0.,12.0,0.,12.0,0.,12.0,0.,12.0
1979-07-29 16:04:52.600 ,6,0,1.,12.0,0.,12.0,0.,12.0,0.,12.0
1979-07-29 16:05:04.600 ,6,0,0.,12.0,0.,12.0,0.,12.0,0.,12.0
1979-07-29 16:05:16.600 ,6,0,0.,12.0,0.,12.0,0.,12.0,0.,12.0
1979-07-29 16:05:28.600 ,6,0,0.,12.0,0.,12.0,0.,12.0,0.,12.0
1979-07-29 16:05:40.600 ,7,0,0.,12.0,0.,12.0,0.,12.0,0.,12.0
1979-07-29 16:05:52.600 ,7,0,0.,12.0,0.,12.0,0.,12.0,0.,12.0
1979-07-29 16:06:04.600 ,7,0,0.,12.0,0.,12.0,0.,12.0,0.,12.0
1979-07-29 16:06:16.600 ,7,0,0.,12.0,0.,12.0,0.,12.0,0.,12.0
1979-07-29 16:06:28.600 ,7,0,0.,12.0,0.,12.0,0.,12.0,0.,12.0
1979-07-29 16:06:40.600 ,7,0,0.,12.0,0.,12.0,0.,12.0,0.,12.0
1979-07-29 16:06:52.600 ,7,0,0.,12.0,0.,12.0,0.,12.0,0.,12.0
1979-07-29 16:07:04.600 ,7,0,0.,12.0,0.,12.0,0.,12.0,0.,12.0
1979-07-29 16:07:16.600 ,6,0,0.,12.0,0.,12.0,0.,12.0,0.,12.0
1979-07-29 16:07:28.600 ,6,0,1.,12.0,0.,12.0,0.,12.0,0.,12.0
1979-07-29 16:07:40.600 ,6,0,1.,12.0,0.,12.0,0.,12.0,0.,12.0
1979-07-29 16:07:52.600 ,6,0,0.,12.0,0.,12.0,0.,12.0,0.,12.0
1979-07-29 16:08:04.600 ,5,0,0.,12.0,0.,12.0,0.,12.0,0.,12.0
1979-07-29 16:08:16.600 ,5,0,0.,12.0,0.,12.0,0.,12.0,0.,12.0
1979-07-29 16:08:28.600 ,5,0,0.,12.0,0.,12.0,0.,12.0,0.,12.0
1979-07-29 16:08:40.600 ,5,0,0.,12.0,0.,12.0,0.,12.0,0.,12.0
1979-07-29 16:08:52.600 ,4,0,0.,12.0,0.,12.0,0.,12.0,0.,12.0
1979-07-29 16:09:04.600 ,4,0,0.,12.0,0.,12.0,0.,12.0,0.,12.0
1979-07-29 16:09:16.600 ,4,0,0.,12.0,0.,12.0,0.,12.0,0.,12.0
1979-07-29 16:09:28.600 ,4,0,0.,12.0,0.,12.0,0.,12.0,0.,12.0
1979-07-29 16:09:40.600 ,3,0,0.,12.0,0.,12.0,0.,12.0,0.,12.0
1979-07-29 16:09:52.600 ,3,0,0.,12.0,0.,12.0,0.,12.0,0.,12.0
1979-07-29 16:10:04.600 ,3,0,0.,12.0,0.,12.0,0.,12.0,0.,12.0
1979-07-29 16:10:16.600 ,3,0,0.,12.0,0.,12.0,0.,12.0,0.,12.0
1979-07-29 16:10:28.600 ,2,0,0.,12.0,0.,12.0,0.,12.0,0.,12.0
1979-07-29 16:10:40.600 ,2,0,0.,12.0,0.,12.0,0.,12.0,0.,12.0
1979-07-29 16:10:52.600 ,2,0,0.,12.0,0.,12.0,0.,12.0,0.,12.0
1979-07-29 16:11:04.600 ,2,0,0.,12.0,0.,12.0,0.,12.0,0.,12.0
1979-07-29 16:11:16.600 ,1,0,0.,12.0,0.,12.0,0.,12.0,0.,12.0
1979-07-29 16:11:28.600 ,1,0,0.,12.0,0.,12.0,0.,12.0,0.,12.0
1979-07-29 16:11:40.600 ,1,0,0.,12.0,0.,12.0,0.,12.0,0.,12.0
1979-07-29 16:11:52.600 ,1,0,0.,12.0,0.,12.0,0.,12.0,0.,12.0
1979-07-29 16:12:04.600 ,0,0,0.,12.0,0.,12.0,0.,12.0,0.,12.0
1979-07-29 16:12:16.600 ,0,0,0.,12.0,0.,12.0,0.,12.0,0.,12.0
1979-07-29 16:12:28.600 ,0,0,0.,12.0,0.,12.0,0.,12.0,0.,12.0
1979-07-29 16:12:40.600 ,0,0,0.,12.0,0.,12.0,0.,12.0,0.,12.0
1979-07-29 16:12:52.600 ,0,0,0.,12.0,0.,12.0,0.,12.0,0.,12.0
1979-07-29 16:13:04.600 ,0,0,0.,12.0,0.,12.0,0.,12.0,0.,12.0
1979-07-29 16:13:16.600 ,0,0,0.,12.0,0.,12.0,0.,12.0,0.,12.0
1979-07-29 16:13:28.600 ,0,0,0.,12.0,0.,12.0,0.,12.0,0.,12.0
1979-07-29 16:13:40.600 ,1,0,0.,12.0,0.,12.0,0.,12.0,0.,12.0
1979-07-29 16:13:52.600 ,1,0,0.,12.0,0.,12.0,0.,12.0,0.,12.0
1979-07-29 16:14:04.600 ,1,0,0.,12.0,0.,12.0,0.,12.0,0.,12.0
1979-07-29 16:14:16.600 ,1,0,0.,12.0,0.,12.0,0.,12.0,0.,12.0
1979-07-29 16:14:28.600 ,2,0,0.,12.0,0.,12.0,0.,12.0,0.,12.0
1979-07-29 16:14:40.600 ,2,0,0.,12.0,0.,12.0,0.,12.0,0.,12.0
1979-07-29 16:14:52.600 ,2,0,0.,12.0,0.,12.0,0.,12.0,0.,12.0
1979-07-29 16:15:04.600 ,2,0,0.,12.0,0.,12.0,0.,12.0,0.,12.0
1979-07-29 16:15:16.600 ,3,0,0.,12.0,0.,12.0,0.,12.0,0.,12.0
1979-07-29 16:15:28.600 ,3,0,0.,12.0,0.,12.0,0.,12.0,0.,12.0
1979-07-29 16:15:40.600 ,3,0,0.,12.0,0.,12.0,0.,12.0,0.,12.0
1979-07-29 16:15:52.600 ,3,0,0.,12.0,0.,12.0,0.,12.0,0.,12.0
1979-07-29 16:16:04.600 ,4,0,0.,12.0,0.,12.0,0.,12.0,0.,12.0
1979-07-29 16:16:16.600 ,4,0,0.,12.0,0.,12.0,0.,12.0,0.,12.0
1979-07-29 16:16:28.600 ,4,0,0.,12.0,0.,12.0,0.,12.0,0.,12.0
1979-07-29 16:16:40.600 ,4,0,0.,12.0,0.,12.0,0.,12.0,0.,12.0
1979-07-29 16:16:52.600 ,5,0,0.,12.0,0.,12.0,0.,12.0,0.,12.0
1979-07-29 16:17:04.600 ,5,0,0.,12.0,0.,12.0,0.,12.0,0.,12.0
1979-07-29 16:17:16.600 ,5,0,0.,12.0,0.,12.0,0.,12.0,0.,12.0
1979-07-29 16:17:28.600 ,5,0,0.,12.0,0.,12.0,0.,12.0,0.,12.0
1979-07-29 16:17:40.600 ,6,0,0.,12.0,0.,12.0,0.,12.0,0.,12.0
1979-07-29 16:17:52.600 ,6,0,0.,12.0,0.,12.0,0.,12.0,0.,12.0
1979-07-29 16:18:04.600 ,6,0,1.,12.0,0.,12.0,0.,12.0,0.,12.0
1979-07-29 16:18:16.600 ,6,0,0.,12.0,0.,12.0,0.,12.0,0.,12.0